EW0466 Weather Reports


time (UTC)temp
F
wind
direction
speed
knots
gust
knots
rain 1hr
in
rain 24hr
in
rain mn
in
humidity
%
barometer
mb
20260507151025 56 0 0.0 2.6 0.00 0.23 0.19 86 1011.6
20260507150526 56 0 0.0 3.5 0.00 0.23 0.19 86 1011.7
20260507150041 56 0 0.0 3.5 0.00 0.23 0.19 86 1011.7
20260507145525 56 352 0.9 3.5 0.00 0.23 0.19 86 1011.4
20260507145026 56 0 0.9 5.2 0.00 0.23 0.19 86 1011.3
20260507144541 56 352 0.0 5.2 0.00 0.23 0.19 86 1011.2
20260507144026 56 51 0.0 3.5 0.00 0.23 0.19 86 1011.5
20260507143525 55 0 0.0 3.5 0.00 0.23 0.19 86 1011.6
20260507143040 55 38 0.0 4.3 0.00 0.23 0.19 86 1011.6
20260507142526 55 344 0.9 4.3 0.00 0.23 0.19 86 1011.7
20260507142026 55 53 0.0 7.0 0.00 0.23 0.19 86 1011.6
20260507141537 55 0 0.0 7.0 0.00 0.23 0.19 87 1011.6
20260507141026 55 29 0.9 4.3 0.00 0.23 0.19 87 1011.6
20260507140525 55 92 0.9 4.3 0.00 0.23 0.19 87 1011.7
20260507140044 55 0 0.9 5.2 0.00 0.23 0.19 87 1011.6
20260507135527 56 360 1.7 7.0 0.00 0.23 0.19 87 1011.7
20260507135026 56 67 0.9 7.0 0.00 0.23 0.19 87 1011.6
20260507134552 56 14 1.7 7.8 0.00 0.23 0.19 88 1011.7
20260507134026 56 0 0.0 7.8 0.00 0.23 0.19 88 1011.7
20260507133526 56 0 0.9 4.3 0.00 0.23 0.19 88 1011.6
20260507133042 56 0 0.0 4.3 0.00 0.23 0.19 88 1011.4
20260507132526 56 0 0.9 5.2 0.00 0.23 0.19 88 1011.2
20260507132025 56 0 1.7 5.2 0.00 0.23 0.19 88 1011.1
20260507131540 56 0 0.0 2.6 0.00 0.23 0.19 88 1010.9
20260507131026 56 304 0.0 2.6 0.00 0.23 0.19 88 1011.2
20260507130525 56 0 0.0 0.0 0.00 0.23 0.19 88 1011.4
20260507130039 56 0 0.0 2.6 0.00 0.23 0.19 88 1011.7
20260507125525 56 0 0.0 2.6 0.00 0.23 0.19 88 1011.6
20260507125025 56 352 0.9 2.6 0.00 0.23 0.19 88 1011.4
20260507124537 56 0 0.0 1.7 0.00 0.23 0.19 88 1011.4
20260507124025 56 0 0.0 2.6 0.00 0.23 0.19 88 1011.3
20260507123525 56 0 0.0 3.5 0.00 0.23 0.19 88 1011.3
20260507123037 56 0 0.9 3.5 0.01 0.23 0.19 88 1011.2
20260507122524 56 0 0.9 3.5 0.01 0.23 0.19 88 1011.2
20260507122025 56 0 0.0 2.6 0.01 0.23 0.19 88 1010.9
20260507121543 56 0 0.0 5.2 0.01 0.23 0.19 88 1011.1
20260507121024 56 0 0.0 5.2 0.02 0.23 0.19 88 1011.0
20260507120524 56 29 0.0 4.3 0.02 0.23 0.19 88 1011.2
20260507120042 56 360 0.0 3.5 0.03 0.23 0.19 88 1011.5
20260507115525 56 61 0.0 2.6 0.04 0.23 0.19 88 1011.4
20260507115025 56 70 0.0 7.0 0.06 0.23 0.19 88 1011.3
20260507114538 56 0 0.0 7.0 0.07 0.23 0.19 87 1011.4
20260507114025 56 344 0.9 5.2 0.08 0.23 0.19 87 1011.2
20260507113526 56 0 0.0 3.5 0.09 0.23 0.19 87 1010.8
20260507113040 56 343 0.0 4.3 0.10 0.22 0.18 87 1010.9
20260507112525 56 98 0.9 4.3 0.11 0.22 0.18 87 1010.7
20260507112024 56 0 0.0 3.5 0.12 0.22 0.18 87 1011.1
20260507111541 56 144 0.9 3.5 0.12 0.22 0.18 87 1011.2
20260507111025 57 0 0.9 3.5 0.12 0.21 0.17 87 1011.0
20260507110525 57 0 0.9 3.5 0.11 0.20 0.16 87 1010.9
20260507110047 57 0 0.0 3.5 0.12 0.20 0.16 87 1010.9
20260507105524 57 90 0.9 3.5 0.10 0.18 0.14 87 1010.8
20260507105028 57 0 0.9 4.3 0.10 0.17 0.13 86 1011.0
20260507104542 57 341 0.9 8.7 0.09 0.16 0.12 86 1010.6
20260507104025 57 35 1.7 8.7 0.08 0.15 0.11 86 1010.4
20260507103528 57 0 0.9 10.4 0.07 0.14 0.10 86 1010.2
20260507103041 57 22 2.6 10.4 0.05 0.12 0.08 86 1010.2
20260507102525 58 62 1.7 10.4 0.04 0.11 0.07 86 1010.0
20260507102026 58 0 0.0 5.2 0.03 0.10 0.06 86 1009.9
20260507101543 58 352 1.7 6.1 0.03 0.10 0.06 86 1010.2
20260507101028 58 284 1.7 8.7 0.02 0.09 0.05 85 1010.2
20260507100526 58 5 2.6 9.6 0.02 0.09 0.05 85 1010.3
20260507100042 59 255 2.6 9.6 0.01 0.08 0.04 85 1010.1
20260507095526 59 332 1.7 9.6 0.01 0.08 0.04 85 1009.9
20260507095025 59 317 4.3 9.6 0.01 0.07 0.03 84 1009.7
20260507094538 59 18 1.7 8.7 0.01 0.07 0.03 84 1010.0
20260507094025 60 22 2.6 8.7 0.01 0.07 0.03 84 1010.0
20260507093525 60 61 3.5 8.7 0.01 0.07 0.03 84 1009.9
20260507093042 61 26 1.7 9.6 0.01 0.07 0.03 84 1010.1
20260507092526 61 34 2.6 9.6 0.01 0.07 0.03 84 1010.0
20260507092027 62 351 1.7 9.6 0.01 0.07 0.03 84 1010.0
20260507091559 62 253 0.9 13.0 0.02 0.07 0.03 84 1009.9
20260507091030 63 125 4.3 13.0 0.02 0.07 0.03 84 1010.0
20260507090527 64 350 1.7 7.0 0.02 0.07 0.03 84 1010.0
20260507090043 65 92 1.7 9.6 0.02 0.07 0.03 85 1009.9
20260507085527 66 344 2.6 9.6 0.02 0.07 0.03 85 1009.8
20260507085028 67 352 1.7 7.8 0.01 0.06 0.02 86 1009.5
20260507084542 67 352 1.7 5.2 0.01 0.06 0.02 86 1009.4
20260507084025 67 0 0.0 1.7 0.01 0.06 0.02 86 1009.3
20260507083525 67 0 0.0 3.5 0.01 0.06 0.02 86 1008.8
20260507083040 67 0 0.0 3.5 0.02 0.06 0.02 85 1008.9
20260507082525 67 0 0.9 2.6 0.02 0.06 0.02 85 1009.2
20260507082027 67 0 0.9 4.3 0.02 0.06 0.02 85 1009.3
20260507081546 67 290 0.0 4.3 0.01 0.05 0.01 85 1009.0
20260507081025 67 345 0.9 3.5 0.01 0.05 0.01 85 1008.9
20260507080527 67 0 0.0 0.0 0.01 0.05 0.01 84 1008.5
20260507080045 67 0 0.0 0.0 0.01 0.05 0.01 84 1008.6
20260507075525 67 0 0.0 1.7 0.01 0.05 0.01 84 1008.6
20260507075027 68 0 0.0 1.7 0.01 0.05 0.01 84 1008.6
20260507074545 68 0 0.0 3.5 0.01 0.05 0.01 84 1008.5
20260507074024 68 0 0.9 3.5 0.01 0.05 0.01 84 1008.9
20260507073528 68 0 0.0 5.2 0.01 0.05 0.01 83 1008.9
20260507073042 68 246 0.9 5.2 0.00 0.04 0.00 83 1008.9
20260507072529 68 314 0.0 5.2 0.00 0.04 0.00 83 1009.3
20260507072025 68 208 0.9 6.1 0.00 0.04 0.00 83 1009.3
20260507071538 68 304 1.7 9.6 0.00 0.04 0.00 83 1009.2
20260507071027 68 281 2.6 9.6 0.00 0.04 0.00 82 1009.1
20260507070525 68 200 0.9 6.1 0.00 0.04 0.00 82 1009.0
20260507070056 68 261 1.7 9.6 0.00 0.04 0.00 82 1008.8
20260507065525 68 263 2.6 9.6 0.00 0.04 0.00 82 1008.9
20260507065025 68 231 2.6 8.7 0.00 0.04 0.00 82 1008.7
20260507064544 69 72 1.7 7.0 0.00 0.04 0.00 82 1008.6
20260507064027 69 0 1.7 7.8 0.00 0.04 0.00 82 1008.6
20260507063524 69 0 2.6 7.8 0.00 0.04 0.00 81 1008.6
20260507063037 69 193 2.6 7.8 0.00 0.04 0.00 81 1008.5
20260507062525 69 229 0.9 5.2 0.00 0.04 0.00 81 1008.5
20260507062027 69 239 1.7 5.2 0.00 0.04 0.00 81 1008.3
20260507061541 69 269 0.9 5.2 0.00 0.04 0.00 81 1008.5
20260507061025 69 217 0.9 5.2 0.00 0.04 0.00 81 1008.5
20260507060524 69 0 0.9 3.5 0.00 0.04 0.00 81 1008.5
20260507060056 69 227 0.9 3.5 0.00 0.04 0.00 81 1008.8
20260507055525 69 0 0.0 6.1 0.00 0.04 0.00 81 1008.9
20260507055025 69 238 0.0 6.1 0.00 0.04 0.00 80 1008.9
20260507054538 69 223 0.9 6.1 0.00 0.04 0.00 80 1008.9
20260507054025 70 0 1.7 6.1 0.00 0.04 0.00 80 1009.1
20260507053525 70 317 0.9 7.8 0.00 0.04 0.00 80 1009.2
20260507053048 70 259 0.9 8.7 0.00 0.04 0.00 79 1009.2
20260507052525 70 258 3.5 8.7 0.00 0.04 0.00 79 1009.3
20260507052025 70 203 1.7 8.7 0.00 0.04 0.00 79 1009.4
20260507051541 70 306 1.7 7.8 0.00 0.04 0.00 79 1009.5
20260507051025 70 240 0.9 7.8 0.00 0.04 0.00 79 1009.6
20260507050526 70 139 2.6 7.8 0.00 0.04 0.00 79 1009.7
20260507050044 70 21 1.7 7.8 0.00 0.04 0.00 78 1009.9
20260507045525 70 250 2.6 7.8 0.00 0.04 0.00 78 1009.8
20260507045025 69 143 1.7 7.0 0.00 0.04 0.00 78 1010.1
20260507044539 69 235 2.6 7.0 0.00 0.04 0.00 79 1010.0
20260507044024 69 279 1.7 7.0 0.00 0.04 0.00 79 1010.0
20260507043525 69 254 0.9 6.1 0.00 0.04 0.00 79 1009.9
20260507043040 69 275 1.7 6.1 0.00 0.04 0.00 79 1010.0
20260507042525 69 232 1.7 6.1 0.00 0.04 0.00 79 1010.0
20260507042025 69 279 1.7 5.2 0.00 0.04 0.00 79 1010.0
20260507041541 69 0 0.0 4.3 0.00 0.04 0.00 79 1010.0
20260507041025 69 226 0.9 4.3 0.00 0.04 0.00 79 1009.7
20260507040525 69 316 0.9 6.1 0.00 0.04 0.00 80 1009.7
20260507040042 69 259 0.9 6.1 0.00 0.04 0.00 80 1009.8
20260507035525 69 0 1.7 5.2 0.00 0.04 0.04 80 1009.9
20260507035025 69 229 0.9 4.3 0.00 0.04 0.04 80 1009.8
20260507034554 69 284 0.0 6.1 0.00 0.04 0.04 80 1009.6
20260507034027 69 0 0.0 6.1 0.00 0.04 0.04 80 1009.8
20260507033525 68 247 0.9 7.0 0.00 0.04 0.04 80 1009.7
20260507033044 68 238 1.7 7.0 0.00 0.04 0.04 80 1009.7
20260507032524 68 206 0.9 6.1 0.00 0.04 0.04 80 1009.6
20260507032024 68 0 0.9 6.1 0.00 0.04 0.04 80 1009.6
20260507031542 68 0 0.0 2.6 0.00 0.04 0.04 80 1009.7
20260507031026 68 286 0.0 4.3 0.00 0.04 0.04 80 1009.4
20260507030526 68 229 0.9 4.3 0.00 0.04 0.04 80 1009.5
20260507030041 68 0 0.9 4.3 0.00 0.04 0.04 81 1009.5
20260507025524 68 190 0.0 4.3 0.00 0.04 0.04 81 1009.6
20260507025025 68 266 0.0 4.3 0.00 0.04 0.04 81 1009.7
20260507024551 68 0 0.0 5.2 0.00 0.04 0.04 81 1009.6
20260507024025 68 0 0.9 5.2 0.00 0.04 0.04 81 1009.8
20260507023525 68 288 0.0 3.5 0.00 0.04 0.04 81 1009.7
20260507023037 68 240 0.0 4.3 0.00 0.04 0.04 81 1009.7
20260507022525 68 264 0.0 4.3 0.00 0.04 0.04 81 1009.8
20260507022027 67 0 0.0 6.1 0.00 0.04 0.04 81 1009.9
20260507021549 67 312 0.9 6.1 0.00 0.04 0.04 82 1010.2
20260507021026 67 300 0.0 3.5 0.00 0.04 0.04 82 1010.2
20260507020525 67 0 0.0 2.6 0.00 0.04 0.04 82 1010.0
20260507020041 67 0 0.9 2.6 0.00 0.04 0.04 81 1009.8
20260507015524 67 0 0.0 0.0 0.00 0.04 0.04 81 1010.0
20260507015025 67 0 0.0 0.0 0.00 0.04 0.04 80 1010.0
20260507014543 67 0 0.0 0.0 0.00 0.04 0.04 80 1010.0
20260507014027 67 0 0.0 0.0 0.00 0.04 0.04 80 1009.9
20260507013524 67 0 0.0 0.0 0.00 0.04 0.04 80 1009.7
20260507013038 68 0 0.0 0.0 0.00 0.04 0.04 80 1009.8
20260507012525 68 0 0.0 0.0 0.00 0.04 0.04 80 1009.8
20260507012025 68 0 0.0 1.7 0.00 0.04 0.04 80 1010.0
20260507011548 68 0 0.0 2.6 0.00 0.04 0.04 79 1009.9
20260507011025 68 141 0.0 2.6 0.00 0.04 0.04 79 1009.8
20260507010525 68 0 0.0 0.9 0.00 0.04 0.04 78 1009.8
20260507010049 69 0 0.0 0.0 0.00 0.04 0.04 78 1009.8
20260507005525 69 0 0.0 0.0 0.00 0.04 0.04 78 1009.9
20260507005024 69 0 0.0 0.9 0.00 0.04 0.04 78 1009.9
20260507004543 69 0 0.0 2.6 0.00 0.04 0.04 78 1009.9
20260507004025 69 0 0.0 2.6 0.00 0.04 0.04 77 1010.0
20260507003525 70 0 0.0 1.7 0.00 0.04 0.04 77 1010.0
20260507003041 70 298 0.0 1.7 0.00 0.04 0.04 77 1009.9
20260507002527 70 0 0.0 1.7 0.00 0.04 0.04 77 1010.0
20260507002025 70 0 0.0 2.6 0.00 0.04 0.04 77 1009.9
20260507001549 70 0 0.0 2.6 0.00 0.04 0.04 77 1010.0
20260507001024 70 0 0.0 2.6 0.00 0.04 0.04 77 1010.0
20260507000525 71 275 0.0 2.6 0.00 0.04 0.04 76 1009.9
20260507000042 71 0 0.0 2.6 0.00 0.04 0.04 76 1009.7
20260506235526 71 0 0.0 2.6 0.00 0.04 0.04 75 1009.6
20260506235025 71 0 0.0 2.6 0.00 0.04 0.04 75 1009.5
20260506234538 71 258 0.0 2.6 0.00 0.04 0.04 75 1009.4
20260506234025 72 0 0.0 4.3 0.00 0.04 0.04 75 1009.6
20260506233526 72 231 1.7 4.3 0.00 0.04 0.04 74 1009.5
20260506233038 72 0 0.0 3.5 0.00 0.04 0.04 74 1009.6
20260506232525 72 0 0.0 3.5 0.00 0.04 0.04 74 1009.7
20260506232025 72 294 0.0 3.5 0.00 0.04 0.04 74 1009.5
20260506231538 72 255 0.0 3.5 0.00 0.04 0.04 74 1009.5
20260506231025 72 195 0.9 3.5 0.00 0.04 0.04 74 1009.7
20260506230525 72 0 0.0 3.5 0.00 0.04 0.04 74 1009.7
20260506230046 72 0 0.9 3.5 0.00 0.04 0.04 74 1009.6
20260506225526 72 250 0.0 5.2 0.00 0.04 0.04 73 1009.4
20260506225026 72 259 0.9 5.2 0.00 0.04 0.04 73 1009.6
20260506224544 72 257 0.9 5.2 0.00 0.04 0.04 73 1009.4
20260506224025 72 163 1.7 5.2 0.00 0.04 0.04 73 1009.5
20260506223525 72 270 1.7 5.2 0.00 0.04 0.04 73 1009.4
20260506223043 72 275 0.9 5.2 0.00 0.04 0.04 72 1009.6
20260506222527 72 198 0.9 5.2 0.00 0.04 0.04 72 1009.4
20260506222026 72 166 1.7 4.3 0.00 0.04 0.04 72 1009.4
20260506221546 72 243 0.0 5.2 0.00 0.04 0.04 71 1009.5
20260506221024 73 0 0.9 6.1 0.00 0.04 0.04 71 1009.5
20260506220526 73 250 2.6 7.0 0.00 0.04 0.04 70 1009.5
20260506220048 73 262 2.6 7.0 0.00 0.04 0.04 70 1009.5
20260506215525 73 265 2.6 7.0 0.00 0.04 0.04 70 1009.5
20260506215025 73 270 2.6 8.7 0.00 0.04 0.04 70 1009.7
20260506214537 73 248 2.6 8.7 0.00 0.04 0.04 70 1009.8
20260506214028 72 279 3.5 11.3 0.00 0.04 0.04 70 1009.8
20260506213524 72 217 2.6 11.3 0.00 0.04 0.04 70 1009.7
20260506213041 72 285 3.5 9.6 0.00 0.04 0.04 70 1009.7
20260506212526 72 195 3.5 9.6 0.00 0.04 0.04 70 1009.8
20260506212026 72 277 5.2 10.4 0.00 0.04 0.04 70 1009.6
20260506211550 72 269 2.6 10.4 0.00 0.04 0.04 71 1009.5
20260506211026 72 248 5.2 13.9 0.00 0.04 0.04 71 1009.5
20260506210526 72 184 3.5 13.9 0.00 0.04 0.04 72 1009.7
20260506210038 72 192 3.5 11.3 0.00 0.04 0.04 71 1009.6
20260506205525 72 225 3.5 10.4 0.00 0.04 0.04 71 1009.7
20260506205025 72 265 2.6 10.4 0.00 0.04 0.04 72 1009.6
20260506204538 72 254 3.5 10.4 0.00 0.04 0.04 72 1009.8
20260506204025 72 25 4.3 10.4 0.00 0.04 0.04 73 1009.6
20260506203525 72 242 2.6 7.8 0.00 0.04 0.04 73 1009.5
20260506203038 72 231 2.6 7.8 0.00 0.04 0.04 73 1009.6
20260506202525 71 248 0.9 8.7 0.00 0.04 0.04 73 1009.4
20260506202025 71 0 3.5 9.6 0.00 0.04 0.04 73 1009.4
20260506201539 71 208 1.7 9.6 0.00 0.04 0.04 73 1009.3
20260506201027 71 252 2.6 7.8 0.00 0.04 0.04 74 1009.4
20260506200525 71 296 1.7 7.8 0.00 0.04 0.04 73 1009.0
20260506200044 71 153 2.6 7.8 0.00 0.04 0.04 73 1008.7
20260506195525 71 267 1.7 7.8 0.00 0.04 0.04 74 1008.9
20260506195025 71 130 0.9 7.0 0.00 0.04 0.04 74 1009.0
20260506194541 71 158 1.7 7.8 0.00 0.04 0.04 74 1009.3
20260506194025 71 282 1.7 7.8 0.00 0.04 0.04 75 1009.3
20260506193525 70 210 0.9 8.7 0.00 0.04 0.04 75 1009.3
20260506193039 70 265 2.6 8.7 0.00 0.04 0.04 76 1009.6
20260506192526 69 265 2.6 8.7 0.00 0.04 0.04 76 1009.7
20260506192025 69 171 3.5 10.4 0.00 0.04 0.04 77 1009.4
20260506191542 69 138 2.6 10.4 0.00 0.04 0.04 78 1009.3
20260506191026 68 141 2.6 10.4 0.00 0.04 0.04 79 1009.8
20260506190525 68 0 0.0 7.8 0.00 0.04 0.04 79 1009.9
20260506190038 68 202 2.6 7.8 0.00 0.04 0.04 80 1010.1
20260506185525 67 109 0.9 6.1 0.00 0.04 0.04 80 1010.2
20260506185025 67 0 2.6 7.0 0.00 0.04 0.04 80 1010.5
20260506184547 67 142 1.7 7.0 0.00 0.04 0.04 80 1010.6
20260506184029 67 274 1.7 7.0 0.00 0.04 0.04 80 1010.7
20260506183525 67 26 1.7 7.0 0.00 0.04 0.04 80 1010.8
20260506183039 67 175 1.7 7.0 0.00 0.04 0.04 80 1011.0
20260506182524 67 198 1.7 6.1 0.00 0.04 0.04 80 1011.1
20260506182027 67 207 0.9 5.2 0.00 0.04 0.04 80 1011.2
20260506181543 67 195 1.7 6.1 0.00 0.04 0.04 79 1011.2
20260506181027 67 138 0.9 7.8 0.00 0.04 0.04 79 1011.3
20260506180526 67 0 0.9 7.8 0.00 0.04 0.04 79 1011.5
20260506180041 67 229 1.7 8.7 0.00 0.04 0.04 78 1011.6
20260506175525 67 228 2.6 9.6 0.00 0.04 0.04 77 1011.5
20260506175026 67 124 3.5 9.6 0.00 0.04 0.04 77 1011.4
20260506174538 67 0 1.7 7.8 0.00 0.04 0.04 77 1011.4
20260506174026 67 233 2.6 10.4 0.00 0.04 0.04 78 1011.4
20260506173526 67 235 3.5 10.4 0.00 0.04 0.04 77 1011.3
20260506173038 67 202 3.5 8.7 0.00 0.04 0.04 78 1011.1
20260506172526 67 237 2.6 7.0 0.00 0.04 0.04 79 1011.3
20260506172026 67 154 1.7 7.8 0.00 0.04 0.04 80 1011.2
20260506171544 66 103 2.6 7.8 0.00 0.04 0.04 80 1011.3
20260506171026 66 200 2.6 7.8 0.00 0.04 0.04 81 1011.5
20260506170525 66 191 1.7 7.8 0.00 0.04 0.04 81 1011.5
20260506170047 66 169 2.6 7.8 0.00 0.04 0.04 81 1011.3
20260506165526 66 146 1.7 7.8 0.00 0.04 0.04 81 1011.4
20260506165026 65 48 1.7 7.8 0.00 0.04 0.04 82 1011.4
20260506164541 65 191 2.6 7.0 0.00 0.04 0.04 82 1011.3
20260506164025 65 187 0.9 6.1 0.00 0.04 0.04 83 1011.6
20260506163526 65 211 1.7 6.1 0.00 0.04 0.04 83 1011.7
20260506163048 65 182 2.6 7.0 0.00 0.04 0.04 83 1011.6
20260506162526 65 113 1.7 7.0 0.00 0.04 0.04 83 1011.9
20260506162026 65 105 1.7 5.2 0.00 0.04 0.04 83 1011.7
20260506161539 65 81 0.9 5.2 0.02 0.04 0.04 83 1012.0
20260506161026 65 154 0.9 6.1 0.03 0.04 0.04 84 1012.0
20260506160525 65 0 0.9 6.1 0.04 0.04 0.04 84 1011.9
20260506160042 65 78 2.6 6.1 0.04 0.04 0.04 83 1012.0
20260506155526 65 176 0.9 5.2 0.04 0.04 0.04 84 1012.2
20260506155026 65 133 1.7 5.2 0.04 0.04 0.04 84 1012.3
20260506154547 65 139 0.0 7.0 0.04 0.04 0.04 84 1012.4
20260506154026 65 0 1.7 7.0 0.04 0.04 0.04 84 1012.4
20260506153526 65 169 0.9 5.2 0.04 0.04 0.04 85 1012.5
20260506153044 64 59 0.9 3.5 0.04 0.04 0.04 84 1012.6
20260506152526 64 0 0.0 0.0 0.04 0.04 0.04 84 1012.5
20260506152026 65 0 0.0 5.2 0.03 0.03 0.03 82 1012.6
20260506151542 65 0 0.9 5.2 0.02 0.02 0.02 81 1012.7